Location: Roland
(31.1349°N, 85.4372°W)
Time: 20:58:50
(UTC+00:00)

Tiros 1 - Pass Details

Date: 26 April 2021
Orbit: 630 x 664 km, 48.4° (Epoch: 05 May)

Event Time Altitude Azimuth Distance (km) Brightness Sun altitude
Rises 13:45:49 0° 283° (WNW) 2,947 10.0 33.9°
Reaches altitude 10° 13:49:14 10° 309° (NW) 2,031 9.4 34.6°
Maximum altitude 13:51:41 14° 341° (NNW) 1,774 9.3 35.2°
Drops below altitude 10° 13:54:08 10° 13° (NNE) 2,022 9.9 35.7°
Sets 13:57:33 0° 39° (NE) 2,925 10.9 36.4°
